Location: Ariel
(45.9570°N, 122.5700°W)
Time: 07:17:56
(UTC-08:00)

Transit 4A - Pass Details

Date: 05 November 2020
Orbit: 862 x 982 km, 66.8° (Epoch: 03 December)

Event Time Altitude Azimuth Distance (km) Brightness Sun altitude
Rises 19:01:54 0° 324° (NW) 3,693 11.5 -23.2°
Reaches altitude 10° 19:06:02 10° 349° (NNW) 2,745 10.5 -24.0°
Maximum altitude 19:09:14 14° 19° (NNE) 2,460 9.9 -24.5°
Enters shadow 19:09:35 14° 22° (NNE) 2,463 9.9 -24.6°
